User: anonymous
Location: Black Rock Desert
(40.7548°N, 119.2364°W)
Time: 03:21:06
(UTC-07:00)
Language:

Cosmos 1340 Rocket - Orbit

View from above orbital plane
View from above orbital plane
View from above satellite
View from above satellite

Ground track
Ground track

The orbit data is extracted from the following two-line orbital elements,

1 13068U 82013B   14272.11364936  .00002796  00000-0  19733-3 0  5199
2 13068 081.2023 273.6654 0022224 352.1698 007.9173 15.04465646774168
Epoch (UTC): 29 September 2014 02:43:39
Eccentricity: 0.0022224
inclination: 81.2023°
perigee height: 538 km
apogee height: 568 km
right ascension of ascending node: 273.6654°
argument of perigee: 352.1698°
revolutions per day: 15.04465646
mean anomaly at epoch: 7.9173°
orbit number at epoch: 77416

The dashed part of the orbit path shows where the satellite is in the earth's shadow,  

DLR